Погода в Ясном

Россия / Забайкальский край     52°07′36″N   113°29′38″E
темп.,
°C
ветер,
м/с
пор.,
м/с
влажн.,
%
обл.,
%
осадки,
мм/ч
давл.,
гПа
погр.,
м
5 декабря, вс
вс500:00−9зсз1385100 0.0 101354
03:00−4зсз7177297 0.0 1012754
06:00−6сз7167343 0.0 1013652
09:00−6сз8177157 0.0 1015699
12:00−5зсз7157056 0.0 1016990
15:00−4зсз9146229 0.0 10171319
18:00−7зсз8166310 0.0 1020914
21:00−9зсз714742 0.0 1024645
6 декабря, пн
пн600:00−10зсз512735 0.0 1026455
03:00−10з614755 0.0 1026594
06:00−12з378286 0.0 1026148
09:00−12зюз248550 0.0 102567
12:00−6юз412655 0.0 1021566
15:00−3зюз513595 0.0 1018777
18:00−10юз22846 0.0 102021
21:00−12юз11898 0.0 102213
7 декабря, вт
вт700:00−12юз118874 0.0 102215
03:00−12з119030 0.0 102314
06:00−13зюз11915 0.0 102411
09:00−13юз11915 0.0 102610
12:00−7ю017019 0.0 102569
15:00−3ююз22655 0.0 102278
18:00−10ююв01875 0.0 102610
21:00−13с11925 0.0 102710
8 декабря, ср
ср800:00−14ссв1195100 0.0 102710
03:00−14ссв1195100 0.0 102512
06:00−15ссз0095100 0.0 102310
09:00−16зсз0096100 0.0 102210
12:00−10ююв1179100 0.0 102094
15:00−8ю1176100 0.0 101862
18:00−11сз1190100 0.0 102012
21:00−9зсз1187100 0.0 102115
9 декабря, чт
чт900:00−8зсз3871100 0.0 1021189
03:00−10сз513710 0.0 1024401
06:00−14сз37772 0.0 1027127
09:00−16сз22852 0.0 103128
12:00−11з24640 0.0 1032284
15:00−9з24585 0.0 1030513
18:00−14з1187100 0.0 103310
21:00−16зюз119287 0.0 103510